FW3054 Weather Reports


time (UTC)temp
C
wind
direction
speed
KPH
gust
KPH
rain 1hr
cm
rain 24hr
cm
rain mn
cm
humidity
%
barometer
mb
20260506092521 18 0.0 1.6 0.00 0.00 0.00 65 1013.3
20260506091546 18 0.0 1.6 0.00 0.00 0.00 64 1013.1
20260506090521 18 0.0 4.8 0.00 0.00 0.00 63 1013.4
20260506085521 18 0.0 4.8 0.00 0.00 0.00 63 1013.4
20260506084521 18 0.0 1.6 0.00 0.00 0.00 62 1013.3
20260506083521 18 0.0 1.6 0.00 0.00 0.00 62 1013.3
20260506082521 18 0.0 1.6 0.00 0.00 0.00 62 1013.3
20260506081521 18 0.0 3.2 0.00 0.00 0.00 62 1013.5
20260506080521 18 0.0 1.6 0.00 0.00 0.00 62 1013.5
20260506073521 15 0.0 3.2 0.00 0.00 0.00 69 1013.4
20260506072521 14 0.0 0.0 0.00 0.00 0.00 73 1013.2
20260506071521 14 0.0 0.0 0.00 0.00 0.00 73 1013.5
20260506070522 15 0.0 1.6 0.00 0.00 0.00 73 1013.8
20260506061521 16 0.0 0.0 0.00 0.00 0.00 66 1015.0
20260506060521 16 0.0 0.0 0.00 0.00 0.00 64 1014.7
20260506050521 17 0.0 1.6 0.00 0.00 0.00 61 1014.4
20260506044521 17 0.0 1.6 0.00 0.00 0.00 61 1015.2
20260506043521 17 0.0 1.6 0.00 0.00 0.00 60 1015.3
20260506042521 17 0.0 0.0 0.00 0.00 0.00 61 1015.2
20260506041546 17 0.0 1.6 0.00 0.00 0.00 63 1014.9
20260506040520 16 0.0 1.6 0.00 0.00 0.00 64 1014.7
20260506035546 16 0.0 1.6 0.00 0.00 0.00 64 1014.8
20260506034521 16 135 1.6 1.6 0.00 0.00 0.00 64 1014.9
20260506033521 16 135 1.6 3.2 0.00 0.00 0.00 64 1014.7
20260506032521 17 0.0 1.6 0.00 0.00 0.00 63 1014.8
20260506031521 17 0.0 1.6 0.00 0.00 0.00 62 1014.8
20260506030521 17 90 1.6 3.2 0.00 0.00 0.00 62 1014.9
20260506025546 17 0.0 1.6 0.00 0.00 0.00 60 1015.3
20260506024521 17 0.0 3.2 0.00 0.00 0.00 58 1015.2
20260506023521 17 0.0 1.6 0.00 0.00 0.00 59 1014.8
20260506022521 17 0.0 1.6 0.00 0.00 0.00 58 1014.6
20260506021521 17 0.0 1.6 0.00 0.00 0.00 57 1014.3
20260506020521 18 0.0 4.8 0.00 0.00 0.00 56 1014.2
20260506015546 18 0.0 1.6 0.00 0.00 0.00 55 1014.2
20260506014520 18 0.0 1.6 0.00 0.00 0.00 54 1014.2
20260506013521 18 0.0 1.6 0.00 0.00 0.00 54 1013.8
20260506012546 18 113 1.6 4.8 0.00 0.00 0.00 55 1014.1
20260506011521 18 0.0 1.6 0.00 0.00 0.00 53 1013.9
20260506010546 18 0.0 1.6 0.00 0.00 0.00 53 1013.7
20260506005521 19 0.0 1.6 0.00 0.00 0.00 52 1013.7
20260506004521 20 0.0 1.6 0.00 0.00 0.00 52 1013.7
20260506003521 20 0.0 1.6 0.00 0.00 0.00 50 1013.5
20260506002520 20 0.0 3.2 0.00 0.00 0.00 48 1013.5
20260506001520 20 0.0 1.6 0.00 0.00 0.00 47 1013.5
20260506000520 20 0.0 3.2 0.00 0.00 0.00 47 1013.3
20260505235521 20 0.0 3.2 0.00 0.00 0.00 46 1013.6
20260505234520 20 0.0 3.2 0.00 0.00 0.00 45 1013.4
20260505233546 21 158 1.6 8.0 0.00 0.00 0.00 45 1013.4
20260505232521 21 135 1.6 4.8 0.00 0.00 0.00 45 1013.5
20260505231546 21 0.0 3.2 0.00 0.00 0.00 46 1013.4
20260505230520 21 135 1.6 4.8 0.00 0.00 0.00 45 1013.4
20260505225520 21 90 1.6 3.2 0.00 0.00 0.00 44 1013.5
20260505224521 21 0.0 3.2 0.00 0.00 0.00 43 1013.5
20260505223520 21 135 3.2 6.4 0.00 0.00 0.00 42 1013.5
20260505222521 22 135 1.6 4.8 0.00 0.00 0.00 43 1013.4
20260505221520 22 135 3.2 8.0 0.00 0.00 0.00 42 1013.3
20260505220520 22 113 1.6 4.8 0.00 0.00 0.00 42 1013.5
20260505215520 22 0 3.2 8.0 0.00 0.00 0.00 43 1013.3
20260505214520 22 0.0 3.2 0.00 0.00 0.00 42 1013.4
20260505213546 23 135 1.6 6.4 0.00 0.00 0.00 43 1013.7
20260505212520 23 23 1.6 8.0 0.00 0.00 0.00 41 1013.6
20260505211520 23 158 1.6 3.2 0.00 0.00 0.00 42 1013.7
20260505210545 23 0.0 4.8 0.00 0.00 0.00 41 1013.9
20260505205520 23 135 1.6 4.8 0.00 0.00 0.00 42 1014.1
20260505204520 22 158 1.6 8.0 0.00 0.00 0.00 44 1013.9
20260505203547 22 225 1.6 6.4 0.00 0.00 0.00 44 1014.0
20260505202548 22 135 1.6 8.0 0.00 0.00 0.00 43 1013.8
20260505201522 22 113 3.2 9.7 0.00 0.00 0.00 41 1013.9
20260505200546 22 135 1.6 4.8 0.00 0.00 0.00 41 1014.0
20260505195522 22 113 1.6 11.3 0.00 0.00 0.00 40 1014.0
20260505194522 22 203 3.2 8.0 0.00 0.00 0.00 41 1014.2
20260505193522 23 113 3.2 6.4 0.00 0.00 0.00 40 1014.2
20260505192522 23 135 1.6 8.0 0.00 0.00 0.00 40 1014.3
20260505191522 23 180 1.6 4.8 0.00 0.00 0.00 41 1014.6
20260505190522 23 248 1.6 8.0 0.00 0.00 0.00 42 1014.8
20260505185522 23 113 3.2 9.7 0.00 0.00 0.00 42 1014.9
20260505184522 24 113 3.2 6.4 0.00 0.00 0.00 40 1015.1
20260505183612 25 0.0 8.0 0.00 0.00 0.00 39 1015.3
20260505182522 25 0.0 3.2 0.00 0.00 0.00 38 1015.4
20260505181522 26 0.0 1.6 0.00 0.00 0.00 35 1015.6
20260505180547 26 113 1.6 4.8 0.00 0.00 0.00 36 1015.8
20260505175522 26 135 1.6 4.8 0.00 0.00 0.00 34 1016.3
20260505174522 26 135 1.6 3.2 0.00 0.00 0.00 35 1016.1
20260505173522 26 203 1.6 6.4 0.00 0.00 0.00 36 1016.7
20260505172547 25 135 1.6 4.8 0.00 0.00 0.00 37 1016.8
20260505171522 25 90 1.6 4.8 0.00 0.00 0.00 37 1016.9
20260505170522 23 135 1.6 3.2 0.00 0.00 0.00 40 1016.6
20260505165522 23 135 3.2 6.4 0.00 0.00 0.00 40 1016.6
20260505164522 23 113 3.2 6.4 0.00 0.00 0.00 40 1016.7
20260505163522 23 0.0 1.6 0.00 0.00 0.00 44 1016.7
20260505162522 23 23 1.6 3.2 0.00 0.00 0.00 41 1016.7
20260505161522 23 0 1.6 4.8 0.00 0.00 0.00 42 1017.0
20260505160522 23 0.0 1.6 0.00 0.00 0.00 43 1017.1
20260505152522 20 113 1.6 4.8 0.00 0.00 0.00 48 1017.7
20260505151522 20 0.0 3.2 0.00 0.00 0.00 48 1017.7
20260505150522 20 0.0 1.6 0.00 0.00 0.00 50 1017.8
20260505140521 15 0.0 1.6 0.00 0.00 0.00 71 1017.0
20260505124521 9 0.0 0.0 0.00 0.00 0.00 90 1016.6
20260505123521 8 0.0 0.0 0.00 0.00 0.00 89 1016.6
20260505122547 8 0.0 0.0 0.00 0.00 0.00 89 1016.8
20260505121546 8 0.0 0.0 0.00 0.00 0.00 90 1016.9
20260505120546 7 0.0 0.0 0.00 0.00 0.00 90 1016.8
20260505115521 7 0.0 0.0 0.00 0.00 0.00 90 1016.3
20260505114521 7 0.0 0.0 0.00 0.00 0.00 90 1016.2
20260505113521 7 0.0 0.0 0.00 0.00 0.00 90 1016.3
20260505112521 7 0.0 0.0 0.00 0.00 0.00 90 1016.2
20260505111521 7 0.0 0.0 0.00 0.00 0.00 90 1015.8
20260505110522 7 0.0 0.0 0.00 0.00 0.00 90 1015.8
20260505101521 7 0.0 0.0 0.00 0.00 0.00 89 1016.1
20260505100521 7 0.0 0.0 0.00 0.00 0.00 89 1016.3
20260505095521 7 0.0 0.0 0.00 0.00 0.00 88 1016.2
20260505094521 7 0.0 0.0 0.00 0.00 0.00 88 1016.1
20260505093521 7 0.0 0.0 0.00 0.00 0.00 88 1016.2